| time (UTC) | temp F | wind direction | speed MPH | gust MPH | rain 1hr in | rain 24hr in | rain mn in | humidity % | barometer mb |
| 20260903160151 | 77 | 276 | 2.0 | 5.0 | 0.00 | 0.32 | 0.32 | 80 | 1013.9 |
| 20260903150151 | 75 | 272 | 2.0 | 5.0 | 0.00 | 0.32 | 0.32 | 86 | 1014.2 |
| 20260903140151 | 71 | 201 | 1.0 | 4.0 | 0.00 | 0.32 | 0.32 | 95 | 1014.4 |
| 20260903120153 | 68 | 0 | 0.0 | 0.0 | 0.00 | 0.32 | 0.32 | 95 | 1015.7 |
| 20260903110151 | 68 | 71 | 0.0 | 0.0 | 0.00 | 0.31 | 0.31 | 95 | 1015.7 |
| 20260903100151 | 67 | 0 | 0.0 | 0.0 | 0.00 | 0.31 | 0.31 | 95 | 1014.8 |
| 20260903090153 | 67 | 0 | 0.0 | 0.0 | 0.00 | 0.31 | 0.31 | 95 | 1015.2 |
| 20260903080151 | 66 | 0 | 0.0 | 0.0 | 0.00 | 0.31 | 0.31 | 95 | 1015.7 |
| 20260903070151 | 66 | 299 | 1.0 | 3.0 | 0.18 | 0.31 | 0.31 | 95 | 1016.5 |
| 20260903060151 | 66 | 302 | 3.0 | 7.0 | 0.00 | 0.00 | 0.00 | 91 | 1017.9 |
| 20260903050151 | 68 | 157 | 0.0 | 3.0 | 0.00 | 0.00 | 0.00 | 84 | 1018.1 |
| 20260903040152 | 67 | 169 | 0.0 | 0.0 | 0.00 | 0.00 | 0.00 | 82 | 1018.4 |
| 20260903030151 | 67 | 0 | 0.0 | 0.0 | 0.00 | 0.00 | 0.00 | 79 | 1018.7 |
| 20260903020151 | 68 | 223 | 0.0 | 3.0 | 0.00 | 0.00 | 0.00 | 76 | 1019.7 |
| 20260903010151 | 68 | 167 | 1.0 | 3.0 | 0.00 | 0.01 | 0.00 | 74 | 1019.6 |
| 20260903000152 | 68 | 112 | 1.0 | 3.0 | 0.00 | 0.01 | 0.00 | 73 | 1019.2 |
| 20260902230151 | 70 | 174 | 0.0 | 3.0 | 0.00 | 0.01 | 0.00 | 71 | 1020.2 |
| 20260902220151 | 71 | 166 | 0.0 | 3.0 | 0.00 | 0.09 | 0.00 | 70 | 1020.5 |
| 20260902210151 | 72 | 177 | 1.0 | 4.0 | 0.00 | 0.12 | 0.00 | 70 | 1019.9 |
| 20260902200151 | 73 | 114 | 1.0 | 3.0 | 0.00 | 0.12 | 0.00 | 71 | 1020.3 |
| 20260902191742 | 76 | 170 | 2.0 | 7.0 | 0.00 | 0.12 | 0.00 | 54 | 1020.8 |
| 20260902190151 | 75 | 155 | 0.0 | 3.0 | 0.00 | 0.12 | 0.00 | 56 | 1020.6 |
| 20260902170151 | 76 | 170 | 2.0 | 7.0 | 0.00 | 0.12 | 0.00 | 54 | 1020.8 |